• In Deutschland
  • Länderverzeichnis
  • Für 7 Tage
  • Wassertemperatur
  • Satellitenkarten
  • Wetterkarte
  • Widgets
  • user-avatar
    Anmelden

    Stündliche Wetter Namibe

    Heute, 19 Oktober, Freitag

    Zeit Temperatur Niederschläge Wind Luftdruck Luftfeuchtigkeit
    00:00 +24°C° 0 mm 2 m/S 758 mmHg 82%
    01:00 +25°C° 0 mm 2 m/S 758 mmHg 83%
    02:00 +25°C° 0 mm 2 m/S 757 mmHg 83%
    03:00 +25°C° 0 mm 1 m/S 757 mmHg 83%
    04:00 +25°C° 0 mm 1 m/S 757 mmHg 83%
    05:00 +25°C° 0 mm 1 m/S 758 mmHg 82%
    06:00 +25°C° 0 mm 1 m/S 758 mmHg 81%
    07:00 +25°C° 0 mm 1 m/S 758 mmHg 80%
    08:00 +27°C° 0 mm 1 m/S 758 mmHg 73%
    09:00 +29°C° 0 mm 2 m/S 758 mmHg 65%
    10:00 +30°C° 0 mm 2 m/S 758 mmHg 57%
    11:00 +33°C° 0 mm 3 m/S 758 mmHg 52%
    12:00 +35°C° 0 mm 4 m/S 757 mmHg 46%
    13:00 +36°C° 0 mm 5 m/S 757 mmHg 41%
    14:00 +35°C° 0 mm 5 m/S 756 mmHg 44%
    15:00 +34°C° 0 mm 5 m/S 756 mmHg 47%
    16:00 +34°C° 0 mm 5 m/S 755 mmHg 50%
    17:00 +32°C° 0 mm 5 m/S 756 mmHg 56%
    18:00 +29°C° 0 mm 5 m/S 756 mmHg 63%
    19:00 +27°C° 0 mm 5 m/S 757 mmHg 69%
    20:00 +27°C° 0 mm 4 m/S 757 mmHg 70%
    21:00 +27°C° 0 mm 3 m/S 757 mmHg 71%
    22:00 +27°C° 0 mm 3 m/S 758 mmHg 71%
    23:00 +26°C° 0 mm 3 m/S 757 mmHg 72%

    Morgen, 20 Oktober, Samstag

    Zeit Temperatur Niederschläge Wind Luftdruck Luftfeuchtigkeit
    00:00 +26°C° 0 mm 2 m/S 757 mmHg 72%
    01:00 +26°C° 0 mm 2 m/S 757 mmHg 73%
    02:00 +26°C° 0 mm 2 m/S 757 mmHg 73%
    03:00 +26°C° 0 mm 2 m/S 756 mmHg 74%
    04:00 +25°C° 0 mm 2 m/S 756 mmHg 75%
    05:00 +26°C° 0 mm 2 m/S 757 mmHg 73%
    06:00 +26°C° 0 mm 2 m/S 757 mmHg 72%
    07:00 +26°C° 0 mm 2 m/S 758 mmHg 71%
    08:00 +28°C° 0 mm 2 m/S 758 mmHg 62%
    09:00 +30°C° 0 mm 3 m/S 758 mmHg 52%
    10:00 +34°C° 0 mm 3 m/S 758 mmHg 43%
    11:00 +34°C° 0 mm 4 m/S 757 mmHg 42%
    12:00 +35°C° 0 mm 5 m/S 757 mmHg 40%
    13:00 +36°C° 0 mm 6 m/S 756 mmHg 38%
    14:00 +35°C° 0 mm 6 m/S 756 mmHg 40%
    15:00 +34°C° 0 mm 5 m/S 756 mmHg 42%
    16:00 +33°C° 0 mm 5 m/S 755 mmHg 44%
    17:00 +30°C° 0 mm 5 m/S 756 mmHg 51%
    18:00 +28°C° 0 mm 4 m/S 756 mmHg 57%
    19:00 +27°C° 0 mm 3 m/S 757 mmHg 63%
    20:00 +26°C° 0 mm 3 m/S 757 mmHg 64%
    21:00 +26°C° 0 mm 3 m/S 758 mmHg 65%
    22:00 +26°C° 0 mm 3 m/S 758 mmHg 66%
    23:00 +26°C° 0 mm 3 m/S 758 mmHg 65%

    übermorgen, 21 Oktober, Sonntag

    Zeit Temperatur Niederschläge Wind Luftdruck Luftfeuchtigkeit
    00:00 +26°C° 0 mm 3 m/S 757 mmHg 63%
    01:00 +26°C° 0 mm 3 m/S 757 mmHg 62%
    02:00 +26°C° 0 mm 3 m/S 757 mmHg 62%
    03:00 +26°C° 0 mm 2 m/S 756 mmHg 62%
    04:00 +25°C° 0 mm 2 m/S 756 mmHg 61%
    05:00 +26°C° 0 mm 2 m/S 756 mmHg 59%
    06:00 +27°C° 0 mm 2 m/S 757 mmHg 57%
    07:00 +27°C° 0 mm 2 m/S 758 mmHg 54%
    08:00 +29°C° 0 mm 2 m/S 758 mmHg 47%
    09:00 +31°C° 0 mm 3 m/S 758 mmHg 41%
    10:00 +34°C° 0 mm 4 m/S 758 mmHg 34%
    11:00 +35°C° 0 mm 4 m/S 757 mmHg 31%
    12:00 +36°C° 0 mm 5 m/S 756 mmHg 28%
    13:00 +38°C° 0 mm 6 m/S 755 mmHg 25%
    14:00 +36°C° 0 mm 6 m/S 755 mmHg 25%
    15:00 +36°C° 0 mm 5 m/S 755 mmHg 25%
    16:00 +35°C° 0 mm 5 m/S 754 mmHg 26%
    17:00 +34°C° 0 mm 5 m/S 755 mmHg 30%
    18:00 +32°C° 0 mm 5 m/S 755 mmHg 33%
    19:00 +29°C° 0 mm 4 m/S 756 mmHg 37%
    20:00 +29°C° 0 mm 4 m/S 756 mmHg 38%
    21:00 +29°C° 0 mm 4 m/S 757 mmHg 39%
    22:00 +28°C° 0 mm 3 m/S 758 mmHg 39%
    23:00 +28°C° 0 mm 3 m/S 757 mmHg 40%

    22 Oktober, Montag

    Zeit Temperatur Niederschläge Wind Luftdruck Luftfeuchtigkeit
    00:00 +28°C° 0 mm 3 m/S 757 mmHg 41%
    01:00 +28°C° 0 mm 3 m/S 757 mmHg 41%
    02:00 +27°C° 0 mm 3 m/S 756 mmHg 42%
    03:00 +27°C° 0 mm 3 m/S 756 mmHg 43%
    04:00 +27°C° 0 mm 3 m/S 756 mmHg 44%
    05:00 +27°C° 0 mm 3 m/S 756 mmHg 43%
    06:00 +28°C° 0 mm 3 m/S 756 mmHg 41%
    07:00 +28°C° 0 mm 3 m/S 756 mmHg 40%
    08:00 +30°C° 0 mm 3 m/S 756 mmHg 36%
    09:00 +34°C° 0 mm 3 m/S 756 mmHg 31%
    10:00 +37°C° 0 mm 3 m/S 756 mmHg 27%
    11:00 +38°C° 0 mm 4 m/S 755 mmHg 26%
    12:00 +39°C° 0 mm 5 m/S 755 mmHg 25%
    13:00 +40°C° 0 mm 6 m/S 754 mmHg 24%
    14:00 +39°C° 0 mm 6 m/S 754 mmHg 25%
    15:00 +38°C° 0 mm 6 m/S 753 mmHg 26%
    16:00 +36°C° 0 mm 6 m/S 753 mmHg 27%
    17:00 +34°C° 0 mm 5 m/S 754 mmHg 30%
    18:00 +33°C° 0 mm 4 m/S 755 mmHg 34%
    19:00 +30°C° 0 mm 4 m/S 755 mmHg 38%
    20:00 +30°C° 0 mm 3 m/S 756 mmHg 40%
    21:00 +29°C° 0 mm 2 m/S 757 mmHg 43%
    22:00 +29°C° 0 mm 1 m/S 758 mmHg 46%
    23:00 +29°C° 0 mm 2 m/S 758 mmHg 48%

    23 Oktober, Dienstag

    Zeit Temperatur Niederschläge Wind Luftdruck Luftfeuchtigkeit
    00:00 +29°C° 0 mm 2 m/S 757 mmHg 50%
    01:00 +29°C° 0 mm 2 m/S 757 mmHg 52%
    02:00 +29°C° 0 mm 3 m/S 757 mmHg 55%
    03:00 +28°C° 0 mm 3 m/S 757 mmHg 57%
    04:00 +28°C° 0 mm 3 m/S 757 mmHg 60%
    05:00 +28°C° 0 mm 3 m/S 757 mmHg 58%
    06:00 +28°C° 0 mm 2 m/S 758 mmHg 55%
    07:00 +29°C° 0 mm 2 m/S 758 mmHg 53%
    08:00 +30°C° 0 mm 2 m/S 758 mmHg 50%
    09:00 +31°C° 0 mm 2 m/S 758 mmHg 46%
    10:00 +34°C° 0 mm 2 m/S 758 mmHg 42%
    11:00 +35°C° 0 mm 3 m/S 757 mmHg 39%
    12:00 +37°C° 0 mm 3 m/S 757 mmHg 36%
    13:00 +40°C° 0 mm 4 m/S 756 mmHg 33%
    14:00 +39°C° 0.1 mm 5 m/S 756 mmHg 36%
    15:00 +37°C° 0.1 mm 5 m/S 756 mmHg 39%
    16:00 +36°C° 0.1 mm 5 m/S 756 mmHg 42%
    17:00 +34°C° 0.4 mm 4 m/S 756 mmHg 47%
    18:00 +33°C° 0.4 mm 3 m/S 757 mmHg 51%
    19:00 +30°C° 0.4 mm 2 m/S 758 mmHg 55%
    20:00 +30°C° 0 mm 2 m/S 758 mmHg 55%
    21:00 +30°C° 0 mm 2 m/S 759 mmHg 56%
    22:00 +29°C° 0 mm 2 m/S 759 mmHg 56%
    23:00 +29°C° 0.2 mm 2 m/S 759 mmHg 56%

    24 Oktober, Mittwoch

    Zeit Temperatur Niederschläge Wind Luftdruck Luftfeuchtigkeit
    00:00 +29°C° 0.2 mm 2 m/S 759 mmHg 56%
    01:00 +29°C° 0.2 mm 2 m/S 758 mmHg 56%
    02:00 +30°C° 0.3 mm 2 m/S 758 mmHg 56%
    03:00 +30°C° 0.3 mm 2 m/S 758 mmHg 56%
    04:00 +30°C° 0.3 mm 1 m/S 758 mmHg 56%
    05:00 +30°C° 0 mm 1 m/S 758 mmHg 55%
    06:00 +31°C° 0 mm 1 m/S 758 mmHg 54%
    07:00 +31°C° 0 mm 1 m/S 759 mmHg 52%
    08:00 +32°C° 0 mm 1 m/S 759 mmHg 49%
    09:00 +34°C° 0 mm 2 m/S 759 mmHg 45%
    10:00 +36°C° 0 mm 2 m/S 759 mmHg 42%
    11:00 +36°C° 0 mm 3 m/S 758 mmHg 42%
    12:00 +35°C° 0 mm 4 m/S 757 mmHg 42%
    13:00 +35°C° 0 mm 4 m/S 756 mmHg 42%
    14:00 +35°C° 0 mm 5 m/S 756 mmHg 43%
    15:00 +35°C° 0 mm 5 m/S 756 mmHg 45%
    16:00 +34°C° 0 mm 5 m/S 756 mmHg 46%
    17:00 +33°C° 0.6 mm 5 m/S 756 mmHg 50%
    18:00 +32°C° 0.6 mm 4 m/S 757 mmHg 54%
    19:00 +29°C° 0.6 mm 3 m/S 758 mmHg 58%
    20:00 +29°C° 0.2 mm 3 m/S 758 mmHg 59%
    21:00 +29°C° 0.2 mm 2 m/S 758 mmHg 60%
    22:00 +29°C° 0.2 mm 2 m/S 759 mmHg 61%
    23:00 +29°C° 0.2 mm 2 m/S 758 mmHg 61%
    Mehr zeigen